RYR248P EDNY-LEPA

Flight info

Callsign RYR248P
Flight time 1h 39m
Altitude 37000
Route AMIKI1W AMIKI DCT ARTAG T53 GERSA N850 ODINA DCT BORDI DCT RUBAS DCT SORAS DCT RIXOT
Aircraft A320/M-SDE3FGHIRWY/LB1

Departure

Time 2026-04-23 13:38
Airport Bodensee Airport Friedrichshafen (EDNY)

Arrival

Time 2026-04-23 15:17
Airport Palma de Mallorca Airport (LEPA)
Time Latitude Longitude Altitude Speed Heading
2026-04-23 13:11 47.67336 9.52306 1376 ft 0 kts 174°
2026-04-23 13:31 47.67334 9.52303 1376 ft 1 kts 203°
2026-04-23 13:31 47.67336 9.52293 1376 ft 1 kts 282°
2026-04-23 13:31 47.67350 9.52292 1376 ft 4 kts
2026-04-23 13:31 47.67371 9.52260 1372 ft 6 kts 265°
2026-04-23 13:32 47.67352 9.52190 1374 ft 8 kts 243°
2026-04-23 13:32 47.67326 9.52116 1373 ft 9 kts 240°
2026-04-23 13:32 47.67292 9.52028 1374 ft 10 kts 240°
2026-04-23 13:32 47.67252 9.51925 1375 ft 15 kts 240°
2026-04-23 13:33 47.67180 9.51737 1373 ft 24 kts 240°
2026-04-23 13:33 47.67096 9.51517 1376 ft 25 kts 240°
2026-04-23 13:33 47.67004 9.51285 1375 ft 27 kts 239°
2026-04-23 13:33 47.66914 9.51063 1375 ft 25 kts 239°
2026-04-23 13:34 47.66847 9.50885 1374 ft 15 kts 244°
2026-04-23 13:34 47.66806 9.50756 1375 ft 12 kts 231°
2026-04-23 13:34 47.66738 9.50725 1373 ft 10 kts 208°
2026-04-23 13:34 47.66685 9.50676 1375 ft 8 kts 220°
2026-04-23 13:35 47.66654 9.50612 1376 ft 7 kts 240°
2026-04-23 13:35 47.66632 9.50553 1374 ft 6 kts 239°
2026-04-23 13:35 47.66600 9.50472 1375 ft 13 kts 239°
2026-04-23 13:35 47.66538 9.50315 1373 ft 22 kts 239°
2026-04-23 13:36 47.66478 9.50160 1373 ft 9 kts 245°
2026-04-23 13:36 47.66466 9.50072 1376 ft 8 kts 278°
2026-04-23 13:36 47.66502 9.49978 1374 ft 13 kts 301°
2026-04-23 13:36 47.66560 9.49852 1377 ft 14 kts 315°
2026-04-23 13:37 47.66630 9.49862 1375 ft 11 kts 80°
2026-04-23 13:37 47.66675 9.49967 1378 ft 19 kts 59°
2026-04-23 13:37 47.66874 9.50483 1374 ft 94 kts 59°
2026-04-23 13:37 47.67302 9.51589 1422 ft 146 kts 60°
2026-04-23 13:38 47.67818 9.52941 1944 ft 154 kts 59°
2026-04-23 13:38 47.68356 9.54362 2610 ft 162 kts 58°
2026-04-23 13:38 47.68946 9.55913 3016 ft 184 kts 58°
2026-04-23 13:38 47.69627 9.57654 3426 ft 204 kts 58°
2026-04-23 13:39 47.70460 9.59359 4274 ft 206 kts 37°
2026-04-23 13:39 47.71817 9.59981 5109 ft 214 kts 356°
2026-04-23 13:39 47.73182 9.59041 5839 ft 227 kts 316°
2026-04-23 13:39 47.74170 9.57161 6528 ft 240 kts 305°
2026-04-23 13:40 47.75102 9.54964 6956 ft 263 kts 302°
2026-04-23 13:40 47.75895 9.52409 7523 ft 281 kts 285°
2026-04-23 13:40 47.76115 9.49490 8354 ft 289 kts 269°
2026-04-23 13:40 47.75745 9.46520 9205 ft 296 kts 250°
2026-04-23 13:41 47.74820 9.43764 10077 ft 301 kts 241°
2026-04-23 13:41 47.73763 9.41022 10663 ft 315 kts 240°
2026-04-23 13:41 47.72623 9.38097 10928 ft 339 kts 240°
2026-04-23 13:41 47.71413 9.35003 11445 ft 351 kts 240°
2026-04-23 13:42 47.70197 9.31893 12169 ft 356 kts 240°
2026-04-23 13:42 47.68900 9.28734 12906 ft 361 kts 238°
2026-04-23 13:42 47.67509 9.25597 13655 ft 366 kts 237°
2026-04-23 13:42 47.66057 9.22461 14349 ft 371 kts 236°
2026-04-23 13:43 47.64574 9.19303 14991 ft 375 kts 236°
2026-04-23 13:43 47.63074 9.16106 15654 ft 380 kts 236°
2026-04-23 13:43 47.61564 9.12876 16312 ft 383 kts 236°
2026-04-23 13:43 47.60047 9.09601 16948 ft 388 kts 236°
2026-04-23 13:44 47.58522 9.06288 17604 ft 391 kts 236°
2026-04-23 13:44 47.56807 9.03129 18235 ft 396 kts 226°
2026-04-23 13:44 47.54766 9.00359 18837 ft 401 kts 221°
2026-04-23 13:44 47.52658 8.97639 19415 ft 403 kts 221°
2026-04-23 13:45 47.51224 8.95793 19801 ft 405 kts 221°
2026-04-23 13:45 47.48394 8.92154 20562 ft 409 kts 220°
2026-04-23 13:45 47.46239 8.89385 21150 ft 412 kts 220°
2026-04-23 13:45 47.44062 8.86589 21742 ft 415 kts 220°
2026-04-23 13:46 47.41877 8.83783 22316 ft 418 kts 220°
2026-04-23 13:46 47.39675 8.80959 22874 ft 421 kts 220°
2026-04-23 13:46 47.37452 8.78115 23410 ft 424 kts 220°
2026-04-23 13:46 47.35213 8.75256 23932 ft 427 kts 220°
2026-04-23 13:47 47.32961 8.72381 24367 ft 430 kts 220°
2026-04-23 13:47 47.30696 8.69490 24807 ft 432 kts 219°
2026-04-23 13:47 47.28418 8.66582 25227 ft 435 kts 219°
2026-04-23 13:47 47.26128 8.63662 25632 ft 437 kts 219°
2026-04-23 13:48 47.23818 8.60725 26035 ft 440 kts 219°
2026-04-23 13:48 47.21480 8.57811 26426 ft 441 kts 215°
2026-04-23 13:48 47.18906 8.55373 26783 ft 440 kts 204°
2026-04-23 13:48 47.16090 8.53641 27142 ft 439 kts 194°
2026-04-23 13:49 47.13127 8.52654 27526 ft 436 kts 184°
2026-04-23 13:49 47.10111 8.52398 27900 ft 434 kts 174°
2026-04-23 13:49 47.07107 8.52757 28292 ft 433 kts 170°
2026-04-23 13:49 47.04105 8.53188 28684 ft 435 kts 170°
2026-04-23 13:50 47.01085 8.53624 29054 ft 437 kts 170°
2026-04-23 13:50 46.98050 8.54064 29357 ft 439 kts 170°
2026-04-23 13:50 46.95009 8.54505 29688 ft 440 kts 170°
2026-04-23 13:50 46.91957 8.54946 30031 ft 442 kts 170°
2026-04-23 13:51 46.88886 8.55388 30362 ft 444 kts 170°
2026-04-23 13:51 46.85810 8.55832 30641 ft 445 kts 170°
2026-04-23 13:51 46.82719 8.56278 30887 ft 448 kts 170°
2026-04-23 13:51 46.79606 8.56722 31110 ft 450 kts 170°
2026-04-23 13:52 46.76488 8.57163 31350 ft 452 kts 170°
2026-04-23 13:52 46.73351 8.57608 31572 ft 453 kts 170°
2026-04-23 13:52 46.70218 8.58051 31885 ft 452 kts 170°
2026-04-23 13:52 46.67085 8.58496 32209 ft 452 kts 170°
2026-04-23 13:53 46.63958 8.58943 32538 ft 451 kts 170°
2026-04-23 13:53 46.60831 8.59392 32831 ft 451 kts 170°
2026-04-23 13:53 46.58762 8.59688 33016 ft 451 kts 170°
2026-04-23 13:53 46.55644 8.60129 33299 ft 450 kts 170°
2026-04-23 13:54 46.52528 8.60568 33601 ft 450 kts 170°
2026-04-23 13:54 46.49414 8.61010 33925 ft 449 kts 170°
2026-04-23 13:54 46.46305 8.61453 34242 ft 448 kts 170°
2026-04-23 13:54 46.43205 8.61889 34544 ft 448 kts 170°
2026-04-23 13:55 46.40112 8.62320 34783 ft 446 kts 170°
2026-04-23 13:55 46.37018 8.62752 35047 ft 446 kts 170°
2026-04-23 13:55 46.33928 8.63187 35315 ft 446 kts 170°
2026-04-23 13:55 46.30847 8.63625 35578 ft 445 kts 170°
2026-04-23 13:56 46.27767 8.64062 35815 ft 444 kts 170°
2026-04-23 13:56 46.24693 8.64493 36060 ft 444 kts 170°
2026-04-23 13:56 46.21623 8.64924 36291 ft 443 kts 171°
2026-04-23 13:56 46.18554 8.65354 36543 ft 443 kts 171°
2026-04-23 13:57 46.15485 8.65788 36775 ft 443 kts 170°
2026-04-23 13:57 46.12408 8.66072 37010 ft 444 kts 177°
2026-04-23 13:57 46.09313 8.65704 37167 ft 449 kts 186°
2026-04-23 13:58 46.03267 8.63246 37206 ft 452 kts 194°
2026-04-23 13:58 45.97266 8.60507 37200 ft 453 kts 194°
2026-04-23 13:59 45.91260 8.57785 37203 ft 453 kts 194°
2026-04-23 13:59 45.85253 8.55069 37206 ft 452 kts 194°
2026-04-23 14:00 45.80255 8.52819 37218 ft 453 kts 194°
2026-04-23 14:00 45.73232 8.49657 37215 ft 453 kts 194°
2026-04-23 14:01 45.67213 8.46956 37199 ft 453 kts 194°
2026-04-23 14:01 45.61199 8.44255 37225 ft 453 kts 194°
2026-04-23 14:02 45.55211 8.41581 37223 ft 454 kts 194°
2026-04-23 14:02 45.49177 8.38895 37227 ft 454 kts 194°
2026-04-23 14:03 45.43146 8.36210 37229 ft 454 kts 195°
2026-04-23 14:03 45.37115 8.33529 37229 ft 454 kts 195°
2026-04-23 14:04 45.31085 8.30853 37227 ft 454 kts 195°
2026-04-23 14:04 45.25053 8.28196 37226 ft 454 kts 195°
2026-04-23 14:05 45.19009 8.25535 37225 ft 455 kts 195°
2026-04-23 14:05 45.12971 8.22880 37223 ft 454 kts 195°
2026-04-23 14:06 45.06936 8.20235 37227 ft 454 kts 195°
2026-04-23 14:06 45.00889 8.17570 37220 ft 455 kts 195°
2026-04-23 14:07 44.94908 8.14946 37220 ft 455 kts 195°
2026-04-23 14:07 44.85820 8.10996 37215 ft 456 kts 195°
2026-04-23 14:08 44.79758 8.08368 37218 ft 457 kts 195°
2026-04-23 14:08 44.73673 8.05733 37212 ft 457 kts 195°
2026-04-23 14:09 44.67588 8.03093 37220 ft 458 kts 196°
2026-04-23 14:09 44.61490 8.00455 37209 ft 460 kts 196°
2026-04-23 14:10 44.55368 7.97818 37213 ft 460 kts 195°
2026-04-23 14:10 44.49251 7.95199 37215 ft 459 kts 196°
2026-04-23 14:11 44.43147 7.92585 37216 ft 459 kts 196°
2026-04-23 14:11 44.37043 7.89972 37224 ft 459 kts 196°
2026-04-23 14:12 44.30978 7.87380 37226 ft 459 kts 196°
2026-04-23 14:12 44.24871 7.84772 37216 ft 459 kts 197°
2026-04-23 14:13 44.18764 7.82167 37214 ft 459 kts 196°
2026-04-23 14:13 44.12640 7.79568 37227 ft 460 kts 197°
2026-04-23 14:14 44.06499 7.76972 37211 ft 462 kts 197°
2026-04-23 14:14 44.00489 7.73862 37219 ft 461 kts 208°
2026-04-23 14:15 43.94830 7.69658 37226 ft 462 kts 209°
2026-04-23 14:15 43.89154 7.65469 37229 ft 462 kts 209°
2026-04-23 14:16 43.83463 7.61293 37239 ft 463 kts 208°
2026-04-23 14:16 43.77773 7.57112 37230 ft 463 kts 209°
2026-04-23 14:17 43.72081 7.52932 37230 ft 463 kts 210°
2026-04-23 14:17 43.66382 7.48751 37237 ft 464 kts 210°
2026-04-23 14:18 43.60673 7.44582 37239 ft 464 kts 210°
2026-04-23 14:18 43.54957 7.40426 37237 ft 465 kts 210°
2026-04-23 14:19 43.49233 7.36265 37237 ft 466 kts 210°
2026-04-23 14:19 43.43539 7.32127 37239 ft 466 kts 210°
2026-04-23 14:20 43.37800 7.27964 37244 ft 467 kts 211°
2026-04-23 14:20 43.32042 7.23807 37237 ft 467 kts 211°
2026-04-23 14:21 43.26281 7.19663 37235 ft 468 kts 211°
2026-04-23 14:21 43.20517 7.15515 37237 ft 468 kts 211°
2026-04-23 14:22 43.14745 7.11373 37238 ft 469 kts 211°
2026-04-23 14:22 43.08954 7.07226 37243 ft 470 kts 211°
2026-04-23 14:23 43.03158 7.03081 37244 ft 470 kts 211°
2026-04-23 14:23 42.97369 6.98954 37235 ft 470 kts 212°
2026-04-23 14:24 42.91576 6.94837 37240 ft 470 kts 212°
2026-04-23 14:24 42.85780 6.90719 37238 ft 470 kts 212°
2026-04-23 14:25 42.79980 6.86600 37228 ft 470 kts 212°
2026-04-23 14:25 42.74180 6.82495 37209 ft 470 kts 213°
2026-04-23 14:26 42.68378 6.78403 37225 ft 470 kts 212°
2026-04-23 14:26 42.62575 6.74319 37232 ft 470 kts 212°
2026-04-23 14:27 42.56765 6.70242 37229 ft 470 kts 212°
2026-04-23 14:27 42.50964 6.66169 37237 ft 470 kts 212°
2026-04-23 14:28 42.45161 6.62103 37237 ft 470 kts 212°
2026-04-23 14:28 42.39344 6.58045 37230 ft 469 kts 214°
2026-04-23 14:29 42.34106 6.53017 37229 ft 460 kts 225°
2026-04-23 14:29 42.29144 6.47647 37228 ft 460 kts 225°
2026-04-23 14:30 42.24137 6.42265 37209 ft 460 kts 225°
2026-04-23 14:30 42.19134 6.36888 37223 ft 460 kts 225°
2026-04-23 14:31 42.14129 6.31521 37236 ft 459 kts 225°
2026-04-23 14:31 42.09128 6.26165 37237 ft 459 kts 225°
2026-04-23 14:32 42.04127 6.20825 37234 ft 459 kts 225°
2026-04-23 14:32 41.99120 6.15496 37234 ft 459 kts 225°
2026-04-23 14:33 41.94118 6.10187 37240 ft 458 kts 225°
2026-04-23 14:33 41.89121 6.04880 37228 ft 457 kts 225°
2026-04-23 14:34 41.84135 5.99597 37240 ft 456 kts 225°
2026-04-23 14:34 41.79159 5.94333 37233 ft 455 kts 225°
2026-04-23 14:35 41.74185 5.89085 37237 ft 455 kts 225°
2026-04-23 14:35 41.69212 5.83854 37238 ft 454 kts 225°
2026-04-23 14:36 41.64240 5.78636 37235 ft 454 kts 225°
2026-04-23 14:36 41.59275 5.73437 37223 ft 454 kts 225°
2026-04-23 14:37 41.54307 5.68233 37208 ft 453 kts 224°
2026-04-23 14:37 41.49352 5.63046 37221 ft 453 kts 224°
2026-04-23 14:38 41.44392 5.57881 37226 ft 453 kts 224°
2026-04-23 14:38 41.39423 5.52724 37223 ft 452 kts 224°
2026-04-23 14:39 41.34459 5.47581 37219 ft 452 kts 224°
2026-04-23 14:39 41.29501 5.42434 37218 ft 452 kts 224°
2026-04-23 14:40 41.25387 5.38169 37218 ft 451 kts 224°
2026-04-23 14:40 41.20429 5.33047 37175 ft 451 kts 224°
2026-04-23 14:41 41.15469 5.27943 37190 ft 450 kts 224°
2026-04-23 14:41 41.10513 5.22853 37202 ft 451 kts 223°
2026-04-23 14:42 41.05563 5.17774 37194 ft 450 kts 223°
2026-04-23 14:42 41.03083 5.15236 36950 ft 450 kts 223°
2026-04-23 14:42 41.00605 5.12706 36672 ft 450 kts 224°
2026-04-23 14:43 40.98125 5.10168 36412 ft 450 kts 224°
2026-04-23 14:43 40.95649 5.07635 36159 ft 451 kts 224°
2026-04-23 14:43 40.93167 5.05098 35907 ft 451 kts 224°
2026-04-23 14:43 40.90678 5.02557 35475 ft 453 kts 224°
2026-04-23 14:44 40.88169 4.99992 34535 ft 458 kts 224°
2026-04-23 14:44 40.85642 4.97414 33635 ft 461 kts 224°
2026-04-23 14:44 40.83093 4.94827 32688 ft 463 kts 224°
2026-04-23 14:44 40.80560 4.92267 32219 ft 455 kts 224°
2026-04-23 14:45 40.78058 4.89742 31589 ft 451 kts 224°
2026-04-23 14:45 40.75585 4.87239 30978 ft 447 kts 224°
2026-04-23 14:45 40.73127 4.84745 30373 ft 444 kts 224°
2026-04-23 14:45 40.70686 4.82270 29712 ft 441 kts 224°
2026-04-23 14:46 40.68268 4.79825 29132 ft 436 kts 224°
2026-04-23 14:46 40.65871 4.77405 28550 ft 432 kts 224°
2026-04-23 14:46 40.63501 4.75015 27971 ft 427 kts 224°
2026-04-23 14:46 40.61147 4.72647 27405 ft 424 kts 224°
2026-04-23 14:47 40.58807 4.70313 26864 ft 421 kts 221°
2026-04-23 14:47 40.56259 4.68377 26314 ft 426 kts 209°
2026-04-23 14:47 40.53475 4.67128 25663 ft 433 kts 198°
2026-04-23 14:47 40.50384 4.66612 24550 ft 452 kts 184°
2026-04-23 14:48 40.47271 4.66542 23918 ft 448 kts 191°
2026-04-23 14:48 40.44365 4.65412 23426 ft 428 kts 213°
2026-04-23 14:48 40.41950 4.63239 22675 ft 419 kts 225°
2026-04-23 14:48 40.39736 4.60834 22426 ft 406 kts 225°
2026-04-23 14:49 40.37592 4.58518 22281 ft 393 kts 225°
2026-04-23 14:49 40.35511 4.56288 22125 ft 380 kts 225°
2026-04-23 14:49 40.33496 4.54145 21988 ft 367 kts 225°
2026-04-23 14:49 40.31529 4.52067 21663 ft 358 kts 225°
2026-04-23 14:50 40.29726 4.49895 20965 ft 347 kts 233°
2026-04-23 14:50 40.28192 4.47496 20263 ft 341 kts 238°
2026-04-23 14:50 40.26810 4.45004 19579 ft 336 kts 240°
2026-04-23 14:50 40.25498 4.42490 18918 ft 333 kts 240°
2026-04-23 14:51 40.24206 4.39993 18245 ft 330 kts 240°
2026-04-23 14:51 40.22910 4.37533 17535 ft 327 kts 239°
2026-04-23 14:51 40.21610 4.35123 16861 ft 323 kts 239°
2026-04-23 14:51 40.20305 4.32755 16223 ft 319 kts 238°
2026-04-23 14:52 40.19006 4.30423 15595 ft 315 kts 239°
2026-04-23 14:52 40.17723 4.28127 15000 ft 311 kts 239°
2026-04-23 14:52 40.16455 4.25863 14407 ft 307 kts 239°
2026-04-23 14:52 40.15200 4.23626 13812 ft 303 kts 239°
2026-04-23 14:53 40.13962 4.21419 13147 ft 300 kts 239°
2026-04-23 14:53 40.12735 4.19232 12451 ft 298 kts 239°
2026-04-23 14:53 40.11512 4.17052 11790 ft 296 kts 238°
2026-04-23 14:53 40.10301 4.14891 11119 ft 295 kts 238°
2026-04-23 14:54 40.09091 4.12732 10473 ft 293 kts 238°
2026-04-23 14:54 40.07896 4.10605 10291 ft 292 kts 238°
2026-04-23 14:54 40.06696 4.08470 10082 ft 291 kts 238°
2026-04-23 14:54 40.05498 4.06339 9954 ft 291 kts 238°
2026-04-23 14:55 40.04299 4.04211 9822 ft 292 kts 238°
2026-04-23 14:55 40.03096 4.02075 9692 ft 291 kts 238°
2026-04-23 14:55 40.01899 3.99945 9563 ft 290 kts 238°
2026-04-23 14:55 40.00704 3.97820 9433 ft 290 kts 237°
2026-04-23 14:56 39.99517 3.95713 9303 ft 290 kts 237°
2026-04-23 14:56 39.98333 3.93618 9175 ft 289 kts 237°
2026-04-23 14:56 39.97144 3.91517 9047 ft 289 kts 237°
2026-04-23 14:56 39.95950 3.89407 8913 ft 287 kts 237°
2026-04-23 14:57 39.94776 3.87326 8773 ft 284 kts 237°
2026-04-23 14:57 39.93608 3.85258 8660 ft 283 kts 237°
2026-04-23 14:57 39.92443 3.83200 8531 ft 282 kts 237°
2026-04-23 14:57 39.91276 3.81143 8405 ft 282 kts 237°
2026-04-23 14:58 39.90115 3.79099 8282 ft 280 kts 236°
2026-04-23 14:58 39.88954 3.77060 8150 ft 279 kts 236°
2026-04-23 14:58 39.87801 3.75031 8029 ft 279 kts 236°
2026-04-23 14:58 39.86649 3.73007 7905 ft 278 kts 236°
2026-04-23 14:59 39.85499 3.70987 7783 ft 278 kts 236°
2026-04-23 14:59 39.84349 3.68966 7661 ft 278 kts 236°
2026-04-23 14:59 39.83203 3.66952 7539 ft 277 kts 236°
2026-04-23 14:59 39.82054 3.64939 7418 ft 277 kts 236°
2026-04-23 15:00 39.80907 3.62931 7297 ft 277 kts 235°
2026-04-23 15:00 39.79761 3.60920 7176 ft 276 kts 236°
2026-04-23 15:00 39.78620 3.58914 7056 ft 276 kts 235°
2026-04-23 15:00 39.77480 3.56911 6940 ft 276 kts 235°
2026-04-23 15:01 39.76340 3.54910 6817 ft 275 kts 235°
2026-04-23 15:01 39.75200 3.52914 6696 ft 275 kts 235°
2026-04-23 15:01 39.74062 3.50926 6583 ft 274 kts 235°
2026-04-23 15:01 39.72923 3.48940 6449 ft 274 kts 234°
2026-04-23 15:02 39.71782 3.46951 6333 ft 275 kts 234°
2026-04-23 15:02 39.70658 3.44990 6207 ft 274 kts 234°
2026-04-23 15:02 39.69588 3.42952 6078 ft 273 kts 243°
2026-04-23 15:02 39.68726 3.40720 5948 ft 273 kts 245°
2026-04-23 15:03 39.67892 3.38542 5850 ft 273 kts 245°
2026-04-23 15:03 39.67042 3.36336 5736 ft 274 kts 244°
2026-04-23 15:03 39.66189 3.34128 5617 ft 274 kts 244°
2026-04-23 15:03 39.65337 3.31918 5491 ft 274 kts 244°
2026-04-23 15:04 39.64484 3.29705 5379 ft 274 kts 244°
2026-04-23 15:04 39.63628 3.27492 5272 ft 275 kts 244°
2026-04-23 15:04 39.62771 3.25277 5149 ft 275 kts 244°
2026-04-23 15:04 39.61914 3.23065 5035 ft 274 kts 244°
2026-04-23 15:05 39.61060 3.20856 5044 ft 275 kts 244°
2026-04-23 15:05 39.60201 3.18638 5041 ft 276 kts 244°
2026-04-23 15:05 39.59341 3.16419 5037 ft 275 kts 244°
2026-04-23 15:05 39.58481 3.14202 5041 ft 275 kts 244°
2026-04-23 15:06 39.57621 3.11984 5038 ft 275 kts 244°
2026-04-23 15:06 39.56764 3.09773 5039 ft 275 kts 244°
2026-04-23 15:06 39.55906 3.07561 5041 ft 275 kts 244°
2026-04-23 15:06 39.55045 3.05348 5034 ft 275 kts 244°
2026-04-23 15:07 39.54184 3.03135 5044 ft 275 kts 243°
2026-04-23 15:07 39.53326 3.00928 5039 ft 275 kts 242°
2026-04-23 15:07 39.52461 2.98713 5038 ft 275 kts 242°
2026-04-23 15:07 39.51598 2.96503 5032 ft 275 kts 242°
2026-04-23 15:08 39.50733 2.94288 5032 ft 276 kts 243°
2026-04-23 15:08 39.49871 2.92070 5030 ft 276 kts 242°
2026-04-23 15:08 39.49004 2.89844 5006 ft 277 kts 242°
2026-04-23 15:09 39.47270 2.85409 4961 ft 276 kts 243°
2026-04-23 15:09 39.46403 2.83195 4873 ft 276 kts 242°
2026-04-23 15:09 39.45534 2.80981 4688 ft 276 kts 242°
2026-04-23 15:09 39.44663 2.78760 4489 ft 277 kts 242°
2026-04-23 15:10 39.44085 2.77283 4345 ft 279 kts 243°
2026-04-23 15:10 39.43350 2.74085 4064 ft 280 kts 263°
2026-04-23 15:10 39.43132 2.71577 3850 ft 279 kts 264°
2026-04-23 15:10 39.42912 2.69109 3661 ft 270 kts 263°
2026-04-23 15:11 39.42702 2.66786 3457 ft 256 kts 263°
2026-04-23 15:11 39.42496 2.64534 3280 ft 248 kts 263°
2026-04-23 15:11 39.42295 2.62330 3186 ft 247 kts 263°
2026-04-23 15:11 39.42094 2.60124 3085 ft 247 kts 263°
2026-04-23 15:12 39.41893 2.57919 2984 ft 247 kts 264°
2026-04-23 15:12 39.41809 2.55709 2876 ft 246 kts 279°
2026-04-23 15:12 39.42289 2.53616 2767 ft 242 kts 302°
2026-04-23 15:12 39.43451 2.52168 2664 ft 226 kts 342°
2026-04-23 15:13 39.44893 2.52078 2568 ft 200 kts 26°
2026-04-23 15:13 39.45940 2.53078 2515 ft 181 kts 50°
2026-04-23 15:13 39.46697 2.54339 2453 ft 176 kts 57°
2026-04-23 15:13 39.47361 2.55634 2299 ft 167 kts 58°
2026-04-23 15:14 39.47954 2.56851 2175 ft 155 kts 59°
2026-04-23 15:14 39.48512 2.58013 2118 ft 150 kts 60°
2026-04-23 15:14 39.49057 2.59154 2044 ft 152 kts 60°
2026-04-23 15:14 39.49614 2.60324 1891 ft 150 kts 60°
2026-04-23 15:15 39.50159 2.61469 1717 ft 149 kts 60°
2026-04-23 15:15 39.50699 2.62607 1518 ft 148 kts 61°
2026-04-23 15:15 39.51239 2.63743 1330 ft 149 kts 61°
2026-04-23 15:15 39.51780 2.64883 1133 ft 145 kts 61°
2026-04-23 15:16 39.52282 2.65938 952 ft 130 kts 62°
2026-04-23 15:16 39.52746 2.66917 791 ft 129 kts 62°
2026-04-23 15:16 39.53207 2.67888 638 ft 125 kts 59°
2026-04-23 15:16 39.53661 2.68848 468 ft 125 kts 60°
2026-04-23 15:17 39.54123 2.69822 298 ft 129 kts 60°
2026-04-23 15:17 39.54598 2.70805 107 ft 125 kts 60°
2026-04-23 15:17 39.55016 2.71716 42 ft 104 kts 60°
2026-04-23 15:17 39.55262 2.72239 38 ft 25 kts 59°
2026-04-23 15:18 39.55268 2.72329 36 ft 13 kts 132°
2026-04-23 15:18 39.55237 2.72371 37 ft 0 kts 136°
2026-04-23 15:18 39.55220 2.72386 38 ft 5 kts 148°
2026-04-23 15:18 39.55213 2.72391 37 ft 0 kts 148°
2026-04-23 15:19 39.55197 2.72404 38 ft 7 kts 148°
2026-04-23 15:19 39.55174 2.72455 38 ft 7 kts 86°
2026-04-23 15:19 39.55191 2.72527 37 ft 9 kts 72°
2026-04-23 15:19 39.55225 2.72609 38 ft 11 kts 60°
2026-04-23 15:20 39.55252 2.72672 38 ft 13 kts 60°
2026-04-23 15:20 39.55322 2.72804 38 ft 14 kts 54°
2026-04-23 15:20 39.55377 2.72913 37 ft 15 kts 58°
2026-04-23 15:20 39.55433 2.73035 38 ft 16 kts 60°
2026-04-23 15:21 39.55494 2.73164 37 ft 17 kts 58°
2026-04-23 15:21 39.55556 2.73298 38 ft 18 kts 59°
2026-04-23 15:21 39.55621 2.73441 37 ft 18 kts 69°
2026-04-23 15:21 39.55554 2.73554 37 ft 18 kts 146°
2026-04-23 15:22 39.55443 2.73647 38 ft 20 kts 147°
2026-04-23 15:22 39.55330 2.73731 37 ft 19 kts 148°
2026-04-23 15:22 39.55208 2.73827 38 ft 22 kts 148°
2026-04-23 15:22 39.55073 2.73933 38 ft 23 kts 150°
2026-04-23 15:23 39.54957 2.74007 38 ft 15 kts 188°
2026-04-23 15:23 39.54882 2.73976 38 ft 11 kts 153°
2026-04-23 15:23 39.54814 2.73986 38 ft 10 kts 219°
2026-04-23 15:23 39.54776 2.73920 36 ft 9 kts 237°
2026-04-23 15:24 39.54743 2.73852 37 ft 11 kts 237°
2026-04-23 15:24 39.54691 2.73742 36 ft 16 kts 240°
2026-04-23 15:24 39.54667 2.73619 37 ft 14 kts 300°
2026-04-23 15:24 39.54742 2.73552 37 ft 13 kts 329°
2026-04-23 15:25 39.54796 2.73521 38 ft 5 kts 18°
2026-04-23 15:25 39.54827 2.73551 36 ft 7 kts 54°
2026-04-23 15:25 39.54830 2.73561 38 ft 2 kts 62°
2026-04-23 15:25 39.54835 2.73571 38 ft 0 kts 60°